RH
6 6 6 5 6 5 5 5 5 5 5 6 6 6 7 5 7 19 26 34 46 39 23 20 20 16 14 13 15 17 19 23 26 25 28 29 26 22 20 18 18 18 21 27 33 34 33 31 32 38 43 43 44 47 46 43 46 50 44 35 32 34 34 32 30 28 27 26 25 25 24 23 22 22 21 21 21 21 22 23 26 29 31 33 30 27 33
6 6 5 5 5 5 5 5 5 6 6 7 8 8 8 11 21 35 48 60 61 40 20 17 16 15 17 16 18 24 26 26 30 33 32 32 33 29 24 20 19 21 22 26 32 34 33 31 31 39 45 45 46 48 48 47 51 58 54 43 37 37 37 34 31 30 30 29 29 28 26 25 24 24 23 23 22 21 22 23 25 28 30 30 27 28 34
6 5 5 5 4 4 5 5 5 7 9 9 9 9 13 25 40 51 60 68 70 57 40 30 23 18 21 25 25 32 41 36 36 47 46 38 37 36 33 29 26 27 28 29 33 34 33 31 32 40 46 44 45 48 48 49 53 59 61 58 50 41 36 36 34 35 36 35 32 29 27 26 25 26 27 27 27 25 24 25 27 28 30 30 28 28 31
5 5 4 4 5 4 4 5 6 9 10 10 11 13 19 32 49 62 71 72 73 77 69 57 49 37 32 41 44 45 58 59 51 54 54 46 42 40 39 37 34 34 33 31 33 34 33 32 33 40 46 45 43 44 46 48 49 51 55 60 59 49 41 37 34 34 35 33 32 28 26 27 26 27 28 27 28 28 27 28 29 28 29 32 31 28 29
5 5 4 4 4 4 5 5 6 11 11 10 17 21 22 34 48 60 72 77 79 87 84 74 76 71 56 58 64 62 67 71 62 56 53 50 47 44 43 42 40 39 38 37 36 34 33 34 36 41 46 46 44 43 45 47 49 49 50 55 59 59 57 50 43 41 40 38 37 33 30 30 29 29 30 29 28 28 27 28 30 29 30 33 33 31 32
4 5 4 5 5 4 5 4 6 12 11 12 23 25 20 33 51 58 68 80 86 90 89 80 82 87 77 69 72 72 70 67 61 58 57 55 52 48 46 45 42 42 41 40 39 37 35 36 38 41 44 44 45 46 45 47 50 52 53 55 57 61 64 61 55 52 52 50 47 42 37 37 36 35 35 34 31 30 29 28 28 28 29 31 33 33 36
5 5 4 6 6 5 6 5 7 12 11 14 23 23 19 32 49 57 64 74 79 84 91 91 87 87 83 76 74 73 68 64 61 60 59 57 54 52 49 46 43 43 43 42 40 38 39 40 40 41 42 43 44 46 47 48 50 52 56 58 57 57 60 59 55 52 54 53 51 48 44 42 41 40 39 38 34 31 29 29 27 25 25 27 29 31 35
5 5 5 6 7 7 7 6 8 11 13 17 19 18 20 28 40 50 56 59 63 71 83 94 95 90 84 79 76 73 69 66 63 62 60 58 56 54 51 48 45 44 43 42 40 40 41 44 45 44 43 43 44 45 48 50 49 50 55 58 58 57 59 60 58 56 58 57 53 52 51 49 49 48 48 48 45 39 34 30 27 25 25 25 25 26 32
5 5 5 6 7 9 9 8 8 9 12 16 16 15 17 23 29 37 43 45 47 56 75 91 94 93 90 83 79 76 73 69 67 65 63 61 59 57 56 55 52 51 49 45 43 45 46 49 50 48 46 45 45 45 46 47 44 43 46 52 55 58 61 64 64 64 65 63 59 56 56 57 58 56 56 56 53 50 46 41 36 32 32 30 25 24 29
5 5 5 6 7 9 11 11 10 9 11 12 13 14 14 18 22 21 27 36 36 43 68 85 85 89 95 92 87 83 78 74 70 68 67 67 64 61 60 60 57 57 57 54 51 52 53 54 54 52 50 49 48 46 44 44 42 39 40 45 48 52 57 61 64 66 67 66 63 63 66 67 63 58 56 56 53 50 48 44 39 35 34 32 27 25 27
6 6 6 6 7 9 10 12 11 12 13 12 12 14 14 16 18 17 22 34 34 38 57 68 72 81 88 86 84 82 81 83 79 72 72 72 67 63 62 61 59 58 59 60 59 57 57 57 58 58 57 55 54 53 50 47 45 44 42 42 44 47 51 56 61 63 66 67 66 69 73 70 60 52 51 54 51 46 43 40 37 34 33 32 31 31 32
7 6 6 6 7 8 9 12 13 12 14 14 14 16 16 16 18 19 23 30 32 37 45 50 58 70 72 71 72 70 71 79 83 81 80 78 73 69 67 64 60 56 53 54 57 57 57 58 59 61 61 59 59 60 59 56 55 55 53 49 49 47 46 54 60 58 62 68 69 70 70 62 55 52 51 52 49 45 43 41 39 37 36 34 34 35 38
9 8 7 6 6 8 9 11 13 13 14 15 15 16 16 17 18 18 22 29 31 37 46 52 56 62 66 67 67 65 63 65 68 72 75 73 70 70 68 65 64 60 55 53 54 54 54 55 57 60 62 61 60 59 59 60 60 61 59 56 55 52 47 51 56 55 61 67 65 64 65 60 56 56 53 51 49 46 45 46 44 42 41 39 40 42 45
12 9 8 7 7 8 9 10 12 14 14 15 15 16 16 17 18 17 21 27 27 28 39 47 47 55 69 72 65 65 68 64 59 62 66 62 57 55 54 53 55 55 56 56 55 54 52 51 51 53 54 57 57 54 53 56 58 59 59 57 58 57 54 52 53 55 60 63 61 64 68 66 61 57 55 53 51 49 48 49 50 49 48 50 52 53 55
14 12 10 8 8 8 9 10 12 13 15 15 15 17 17 17 18 17 19 24 23 20 26 29 27 38 61 71 69 69 71 71 67 67 68 63 53 47 45 45 45 43 43 45 47 48 48 47 46 45 45 47 49 47 48 50 52 54 56 56 57 59 61 59 59 59 61 62 65 70 72 67 59 55 55 54 54 54 52 53 56 56 57 62 65 65 65
15 13 11 10 9 9 9 10 11 12 14 15 15 16 17 16 17 16 17 21 21 19 21 22 20 25 37 49 59 64 68 73 73 70 69 65 57 51 47 44 43 42 38 36 37 38 39 41 42 42 44 45 45 45 48 50 50 52 52 51 53 55 56 56 58 61 61 62 65 67 67 64 57 55 56 55 56 58 58 58 63 64 64 69 74 75 75
15 15 13 11 11 10 10 10 12 12 13 15 16 17 17 16 16 17 18 20 20 20 23 23 22 22 24 27 33 39 45 52 56 58 59 57 55 55 53 48 45 43 40 38 37 38 38 39 43 46 48 49 49 51 54 53 53 56 53 49 49 49 49 52 57 60 61 60 60 61 62 63 60 58 60 60 59 62 62 62 65 66 67 73 78 82 83
17 16 15 13 12 12 12 11 11 12 13 14 15 16 16 17 17 17 18 20 19 20 23 24 23 21 21 21 21 21 23 25 29 31 32 32 35 40 43 42 41 41 41 40 41 46 48 48 50 53 53 54 55 56 58 57 58 60 57 53 51 48 47 51 55 59 59 58 61 64 66 66 64 63 66 67 67 70 67 62 61 63 68 75 81 85 88
18 17 16 15 14 13 13 12 12 12 12 12 14 15 15 16 17 18 18 18 18 19 20 21 21 19 19 20 21 20 20 20 20 20 20 23 27 29 32 35 37 40 45 43 42 49 55 55 55 55 56 58 58 58 60 61 62 62 60 60 59 56 55 56 58 62 63 61 65 72 74 72 68 69 73 73 74 77 73 64 61 63 68 75 81 86 90
18 18 17 16 16 15 15 14 14 14 13 12 13 14 14 15 18 19 19 18 19 20 20 20 19 18 18 18 19 20 21 21 20 20 20 23 26 31 40 46 45 45 46 44 43 49 55 57 57 56 57 60 59 60 63 65 65 65 62 62 63 62 65 68 67 70 72 70 71 76 77 75 71 72 77 79 79 80 77 70 67 67 69 75 82 86 90
18 18 18 18 18 17 16 16 15 15 15 14 14 14 14 15 17 19 22 23 23 22 22 20 19 19 18 17 16 17 18 19 20 21 23 24 27 34 44 48 46 45 45 45 48 52 55 58 59 57 58 59 57 59 64 65 66 66 64 64 63 62 67 73 75 76 78 77 78 79 79 78 76 76 81 85 84 85 84 81 76 73 73 79 84 87 88
17 17 17 17 18 18 18 18 17 17 16 16 15 15 14 15 16 19 22 25 24 23 23 22 21 21 21 20 18 16 15 16 18 21 23 26 28 30 35 38 39 42 45 50 55 55 55 59 61 59 58 58 56 59 64 64 64 64 63 63 63 61 65 70 73 76 81 82 84 84 83 83 83 84 88 91 92 94 95 92 88 83 81 83 85 87 88
16 15 15 15 16 17 18 18 18 19 18 18 17 17 16 16 16 18 21 24 24 23 23 23 24 25 25 23 21 19 16 15 16 18 22 26 27 26 28 31 32 35 41 49 58 60 58 58 59 58 58 58 57 60 62 61 61 62 61 61 61 63 65 64 65 72 80 84 88 90 90 91 92 93 95 97 98 99 99 98 97 95 93 92 91 90 89
15 15 14 14 14 15 15 16 17 19 19 20 19 18 18 18 17 17 20 23 24 24 24 25 27 27 26 27 26 24 21 17 14 14 16 21 23 23 24 26 27 30 34 40 49 57 60 60 59 57 56 58 59 59 60 60 61 62 61 61 63 64 64 62 64 69 74 80 88 90 89 89 88 88 88 88 87 87 86 85 84 83 81 81 79 77 75
15 14 14 14 14 14 14 14 15 16 17 19 20 20 20 20 19 19 20 21 24 25 25 27 29 27 28 31 32 29 26 24 21 19 18 18 18 19 21 22 24 26 29 32 39 48 55 58 59 57 56 57 58 59 60 62 64 65 65 66 67 66 65 64 67 68 69 75 81 80 76 75 73 71 72 73 72 73 72 70 69 68 67 65 63 61 59
14 14 15 14 14 14 15 15 15 15 16 17 18 20 21 21 21 21 21 22 25 26 26 29 31 32 34 37 36 34 33 33 31 30 29 25 23 21 21 20 21 22 25 30 38 44 50 55 57 58 58 57 57 60 62 63 65 67 67 69 69 68 66 67 69 69 68 71 75 72 70 73 75 74 73 72 71 69 66 63 61 60 58 55 53 51 49
15 15 15 15 15 15 15 16 16 16 16 17 18 19 20 20 22 23 23 24 26 26 27 30 33 36 41 42 41 41 43 42 40 38 37 35 32 29 26 24 23 23 24 29 36 41 46 52 57 60 62 61 60 61 62 62 64 66 66 69 70 67 66 69 72 72 72 74 75 73 71 71 72 70 67 64 61 58 54 51 49 48 46 44 42 39 38
17 17 17 17 17 17 16 17 17 17 18 18 18 19 20 20 21 23 25 26 26 25 27 30 33 38 44 46 46 46 46 45 45 44 42 41 39 35 32 31 28 25 25 31 38 42 46 52 58 61 63 62 60 59 58 58 58 57 58 64 66 64 66 71 74 71 71 71 69 65 62 59 56 53 50 48 47 46 45 44 43 41 39 37 33 30 29
18 19 19 18 18 18 18 18 18 18 20 20 19 20 21 21 21 23 25 27 28 26 27 30 33 38 44 47 50 51 47 45 47 48 46 47 44 38 37 39 36 30 29 34 40 44 47 52 58 61 61 58 56 57 58 56 53 54 59 65 66 65 67 70 70 68 66 64 61 57 54 49 45 43 42 41 41 42 41 40 38 36 33 31 29 27 27
19 19 19 19 19 19 19 19 19 19 20 21 21 21 22 23 23 24 25 28 30 29 29 30 33 39 43 46 52 58 53 47 48 51 51 51 48 42 39 42 43 40 36 35 38 41 43 45 49 55 57 55 53 53 52 49 48 57 69 73 70 69 70 68 65 62 59 56 55 52 47 44 43 44 44 44 44 43 41 38 35 32 30 30 31 31 32
19 19 19 19 19 19 19 20 20 20 21 21 22 22 23 24 25 25 26 29 31 32 32 31 32 39 44 45 51 58 54 49 51 54 53 52 51 47 43 43 46 47 44 39 39 43 44 42 43 47 51 52 51 50 47 44 47 57 71 78 78 73 68 63 59 56 53 51 51 48 45 45 47 48 48 47 46 43 40 37 33 30 30 34 37 39 39
18 18 18 18 19 19 19 19 19 19 20 21 21 22 22 24 26 27 27 28 31 35 36 33 31 39 46 47 49 53 51 49 52 53 52 52 52 50 48 48 49 50 50 46 44 47 49 46 44 46 47 47 49 48 46 46 48 51 58 68 73 69 63 61 59 55 49 45 42 38 35 35 36 37 38 39 38 37 35 32 30 31 38 44 47 48 48
18 18 18 18 17 17 17 17 17 18 19 19 20 21 23 25 27 28 28 29 31 36 39 35 33 39 45 45 47 50 50 51 53 51 50 51 50 49 52 55 53 52 53 51 48 49 50 48 47 48 48 47 47 48 48 51 53 50 48 53 58 59 60 62 58 49 43 40 38 35 31 25 23 26 28 30 31 30 28 29 34 42 49 51 50 50 51
16 16 15 15 16 17 18 18 17 18 18 19 20 21 22 25 28 29 29 30 32 37 41 38 36 40 45 47 50 53 54 55 56 55 52 51 50 49 52 54 53 52 53 52 49 49 51 50 48 48 48 47 46 47 49 52 54 52 50 50 52 56 62 62 53 44 42 44 45 43 38 28 21 22 25 26 26 27 31 38 47 52 51 49 50 53 55
16 18 22 27 31 32 30 26 23 21 20 20 21 22 23 25 28 29 30 31 35 41 43 39 37 42 48 53 56 59 60 61 62 61 58 55 52 51 50 50 51 53 54 54 52 52 52 52 50 48 49 49 47 48 52 53 51 50 51 52 54 59 62 61 53 46 45 49 51 49 45 35 25 21 23 27 32 39 45 50 51 50 51 55 59 61 61
30 37 43 47 47 43 37 30 25 22 22 22 22 23 24 26 27 29 31 36 43 46 43 40 42 47 54 59 61 62 63 64 65 64 61 58 56 54 52 51 53 54 53 53 54 54 54 53 52 51 51 51 49 52 56 54 50 48 48 50 55 59 59 56 53 49 47 52 55 52 48 41 30 24 29 40 48 51 51 50 52 57 61 61 58 55 56
49 53 54 50 45 38 32 27 24 22 23 23 23 23 25 25 28 32 37 44 49 49 45 45 49 53 57 61 62 62 63 64 66 66 63 60 59 58 56 56 56 54 53 52 53 53 54 54 53 53 54 53 51 52 55 54 51 51 50 50 54 56 54 53 54 51 49 55 57 52 47 42 31 27 39 52 54 51 51 56 61 62 56 48 42 41 44
55 54 48 41 35 29 25 23 23 22 22 23 22 23 26 28 31 38 45 50 53 53 51 52 55 59 61 62 62 63 63 63 66 68 67 64 62 59 59 60 59 56 56 57 55 54 55 56 55 53 53 54 52 52 52 52 52 54 54 54 54 54 52 54 57 55 55 60 58 49 42 36 29 33 47 55 52 53 60 62 57 47 37 31 28 28 32
52 46 37 30 27 25 23 24 25 24 24 25 25 25 31 37 40 45 51 54 55 56 57 58 60 63 65 65 66 67 66 66 69 70 70 71 69 65 64 64 61 58 59 60 58 54 54 55 55 52 50 52 53 52 52 52 51 52 56 57 55 53 55 59 61 60 61 62 55 42 32 27 29 39 51 55 56 60 61 52 40 32 26 21 19 19 23
43 35 29 27 27 28 28 30 31 31 31 32 31 32 39 46 47 49 55 58 58 60 63 64 63 65 66 67 69 69 68 69 71 70 72 76 76 71 70 71 65 60 61 62 60 58 57 56 56 55 53 54 54 52 52 54 53 53 56 56 53 55 60 64 65 64 63 61 54 37 23 22 34 46 54 58 61 59 50 39 30 25 19 15 14 16 19
35 31 30 31 33 34 34 36 38 39 40 40 40 42 47 50 50 52 58 62 62 63 66 66 66 68 69 68 68 69 70 72 73 74 78 83 81 75 75 76 70 65 66 66 63 65 66 64 62 60 59 59 57 54 53 55 55 55 56 55 55 61 67 67 66 65 62 61 57 39 20 23 42 56 58 60 60 51 39 31 25 17 13 12 12 13 16
34 34 35 36 38 39 40 42 44 44 43 44 46 48 49 52 55 57 61 64 65 67 68 69 69 69 68 67 69 72 74 76 80 82 83 83 80 77 78 79 75 73 73 71 68 70 73 72 69 66 64 63 62 58 57 57 56 56 58 58 61 68 71 67 66 67 65 64 62 45 23 26 49 62 61 59 55 42 32 27 19 11 10 12 10 10 12
38 39 41 42 43 44 45 46 47 46 44 45 48 50 52 57 61 62 64 68 70 69 70 72 72 70 70 72 75 77 77 80 84 86 83 80 81 82 84 85 82 79 78 75 73 74 76 76 73 69 64 62 62 60 60 60 59 59 60 60 64 71 72 68 67 69 68 67 64 47 27 30 51 65 63 57 48 37 29 23 14 9 10 11 8 9 11
43 45 46 47 47 48 48 49 50 50 48 47 49 52 55 60 63 62 64 68 69 67 67 68 67 67 69 71 73 76 80 82 83 83 84 84 84 85 88 91 89 85 83 81 78 76 76 75 73 69 64 63 62 61 62 63 64 63 62 61 65 70 70 68 69 72 71 69 63 46 28 32 51 65 64 54 43 35 28 20 12 10 11 9 8 8 9
49 52 54 52 53 53 52 50 51 53 52 52 53 53 55 57 59 59 60 62 63 62 63 63 62 64 68 71 73 78 83 83 81 82 87 89 87 85 88 91 92 91 90 86 81 77 77 74 71 68 66 64 62 61 62 62 64 66 65 64 65 68 68 68 71 74 74 71 60 40 27 34 54 65 63 52 42 37 29 18 11 10 10 8 8 9 7
54 58 58 56 56 58 58 57 58 59 60 61 62 62 62 62 62 63 64 66 67 67 69 70 71 72 75 78 81 84 86 86 86 87 87 87 87 88 89 89 91 95 95 88 80 78 79 77 73 72 72 68 65 64 63 61 61 63 64 63 64 64 64 68 73 76 78 76 59 34 25 39 59 67 62 51 43 38 30 18 11 11 10 8 9 9 7
57 63 64 63 63 64 66 68 68 67 67 69 70 68 67 67 68 69 71 73 73 73 74 75 78 81 84 86 87 88 90 91 91 90 88 87 90 93 91 88 89 94 93 86 80 81 84 83 78 76 77 75 71 69 68 66 64 64 63 63 63 62 63 70 76 77 80 80 63 34 26 45 65 69 62 52 45 41 33 21 12 11 10 8 9 10 8
57 61 64 65 67 69 72 75 75 73 71 73 74 71 68 68 70 73 74 75 74 74 74 77 81 85 89 90 89 89 93 94 93 91 90 90 92 94 92 87 83 82 81 80 81 84 88 90 89 87 87 85 80 76 74 72 71 71 68 64 64 64 66 73 79 79 81 84 70 42 31 50 71 73 64 55 48 43 38 27 17 13 12 9 9 10 10
62 63 65 66 69 73 78 82 85 84 81 80 80 77 74 74 77 78 78 78 77 76 77 81 86 90 92 94 94 93 94 95 95 94 93 92 92 94 94 90 83 76 74 78 83 87 90 92 91 89 88 88 85 83 81 76 72 72 72 71 74 75 73 76 81 81 81 86 80 54 36 49 72 78 70 61 54 48 42 34 23 17 14 12 9 9 10
75 74 75 75 76 79 84 88 92 94 95 94 91 86 84 85 88 88 86 84 83 84 86 91 95 97 97 98 98 97 95 93 93 93 92 90 93 97 97 92 86 81 81 86 91 92 94 92 84 76 76 78 79 80 82 78 74 74 74 73 76 79 76 77 83 84 82 87 87 66 42 43 65 79 77 68 59 51 45 40 31 22 18 15 12 9 9
80 80 83 84 81 81 84 87 89 93 98 100 98 96 95 94 94 91 89 88 89 93 96 99 100 100 99 99 99 100 100 98 96 95 93 92 93 96 96 93 91 90 93 96 97 97 98 96 84 72 73 80 80 77 75 74 73 75 77 78 81 83 81 81 85 87 84 87 89 74 49 40 54 71 77 72 61 52 48 45 38 28 22 20 18 15 11
75 79 87 91 89 85 82 81 82 85 91 96 99 99 97 94 90 88 87 89 91 93 95 96 97 97 98 98 99 99 99 98 98 97 94 90 90 92 94 98 99 95 91 91 94 98 102 101 89 75 75 83 85 80 75 72 72 74 77 81 84 86 85 83 85 88 87 88 89 79 59 43 44 56 69 74 68 59 54 51 45 36 28 24 22 21 18
Wind_Speed
19 19 20 20 20 21 21 21 22 21 21 22 22 20 18 16 11 9 8 6 5 5 8 13 17 21 24 23 21 19 19 18 16 15 15 15 15 16 15 15 15 15 16 15 13 10 9 9 9 10 11 13 16 20 24 24 17 9 7 9 16 19 17 15 13 10 12 12 11 14 14 14 16 17 19 19 19 20 17 11 12 16 12 7 5 3 5
19 19 20 20 20 20 20 20 21 21 21 22 20 18 17 14 11 8 6 5 4 5 10 13 16 19 19 19 17 16 16 16 15 14 13 12 12 12 13 14 14 14 15 15 14 12 11 10 11 12 13 13 13 14 19 24 22 17 13 10 11 14 14 14 12 8 7 8 8 11 12 11 13 15 15 17 17 18 17 13 12 14 15 12 6 3 7
19 19 19 20 20 20 19 20 19 19 20 20 18 16 15 12 10 8 6 6 4 7 12 12 14 16 16 15 14 14 13 13 13 11 10 11 11 11 12 13 13 13 14 14 14 12 11 10 12 15 14 12 14 13 12 15 16 16 17 16 12 9 11 15 14 8 6 5 5 9 12 11 11 12 12 13 14 16 15 13 11 11 14 15 9 4 10
18 19 19 19 20 20 19 19 17 17 18 18 18 18 15 11 9 8 7 7 5 5 10 12 13 15 15 14 13 13 13 12 12 11 9 9 11 12 13 13 13 13 13 15 14 13 13 11 12 17 17 13 14 16 14 13 12 11 14 19 18 12 10 13 16 14 10 6 6 11 15 14 13 13 11 10 10 13 14 12 10 10 12 14 12 8 12
18 19 19 19 20 19 19 18 16 16 17 17 19 19 14 12 12 10 7 7 7 4 6 9 12 16 17 15 12 13 13 11 10 11 10 9 10 12 13 13 13 13 13 14 14 14 15 13 12 16 18 16 15 16 17 17 16 13 12 15 17 15 12 11 12 12 10 4 5 10 12 12 13 13 11 8 7 8 10 9 7 9 10 10 11 11 12
18 19 19 19 19 19 19 18 16 15 15 17 18 17 14 14 15 14 11 10 9 7 7 5 3 11 16 16 12 13 14 13 11 10 10 10 11 10 10 11 13 12 12 13 14 14 15 14 14 15 16 16 15 15 16 16 17 17 13 10 9 10 12 12 11 12 14 11 8 8 7 8 9 9 7 6 5 4 5 5 3 5 6 4 6 9 10
18 18 19 19 19 19 18 17 16 15 15 16 16 15 15 16 15 15 15 14 13 11 9 7 4 5 11 13 12 13 15 14 13 12 10 10 10 8 8 9 10 11 12 11 12 13 15 14 15 16 17 16 16 15 14 13 14 15 14 11 10 10 12 12 10 11 12 12 12 11 8 7 8 6 4 2 2 1 3 4 1 2 3 3 4 5 7
18 18 18 19 18 18 18 17 16 15 14 14 13 13 14 15 14 15 14 13 14 12 10 8 6 5 7 11 13 13 14 14 12 12 10 10 10 8 7 8 8 8 8 9 10 12 13 13 14 16 17 16 16 15 13 11 12 13 16 17 16 15 15 15 13 11 9 8 10 10 7 4 3 2 2 3 1 1 2 3 4 4 5 5 6 6 7
18 18 19 18 18 17 17 16 15 14 13 13 13 13 13 13 12 12 11 10 12 12 10 9 7 7 7 11 14 14 14 14 13 12 11 9 9 8 7 8 8 6 5 5 7 9 10 11 13 14 15 14 13 12 10 10 11 13 16 19 19 18 18 19 17 13 11 9 9 9 8 7 8 9 9 9 8 7 6 5 6 8 9 9 10 11 10
18 18 18 18 18 17 17 16 15 15 14 13 13 13 13 12 10 10 9 9 10 11 10 7 8 9 9 9 9 10 12 12 10 10 12 10 9 9 7 6 6 4 3 4 5 6 7 9 10 11 12 12 12 11 11 11 12 12 13 15 15 15 16 18 17 14 13 12 11 10 8 6 9 13 14 12 12 11 10 9 8 9 11 12 13 14 13
18 18 18 18 19 18 17 16 15 15 14 14 13 13 13 12 10 9 9 8 9 9 8 6 8 10 10 10 9 7 7 7 6 7 10 10 8 8 7 5 4 3 3 3 3 3 5 6 6 6 7 7 8 9 10 11 11 10 10 11 10 9 11 13 14 13 12 13 12 10 7 5 7 13 15 15 15 14 13 12 11 11 12 13 14 14 15
18 18 18 19 19 19 18 17 17 16 16 16 16 14 13 13 11 10 8 7 8 8 7 7 9 9 9 10 11 10 7 6 5 5 6 7 5 4 4 3 2 2 3 3 2 3 4 6 7 6 6 6 5 5 6 9 8 6 6 7 5 6 9 12 14 12 11 16 16 9 5 8 10 12 16 16 15 15 13 12 11 12 12 14 14 15 16
18 18 19 19 19 20 19 19 18 18 17 17 16 15 15 15 12 11 9 7 7 7 6 6 7 7 7 8 9 9 9 8 6 5 4 4 3 1 0 1 1 2 2 2 3 4 4 6 7 7 8 8 7 6 8 11 12 11 11 9 6 7 10 12 13 12 12 18 18 7 3 10 13 12 15 17 15 15 14 12 11 13 14 15 16 17 17
18 18 19 19 20 20 20 19 19 18 18 17 17 17 17 15 13 12 10 8 7 7 5 4 4 3 3 5 6 6 7 8 7 6 5 4 3 2 1 1 2 3 5 6 6 7 6 6 7 7 8 9 9 8 8 10 12 13 12 11 9 11 14 14 13 11 12 16 15 6 2 7 13 13 14 16 16 15 14 13 12 13 15 15 16 16 17
17 18 19 19 20 20 20 20 19 19 18 17 17 16 16 14 13 12 11 9 8 7 6 4 3 2 2 3 4 4 4 4 4 3 3 3 3 3 1 0 1 2 3 5 7 8 8 8 7 7 7 8 9 8 8 9 10 11 12 11 10 12 15 16 15 13 15 16 12 4 1 5 13 16 15 15 15 15 14 13 11 13 14 14 13 14 15
17 17 18 19 20 20 20 20 20 19 18 18 17 16 15 14 13 13 13 11 8 8 10 8 6 5 1 2 3 4 4 4 3 3 3 4 5 3 2 1 1 1 2 3 3 4 5 6 7 7 7 9 9 6 6 7 5 6 10 11 12 12 13 15 16 15 18 19 12 7 6 8 13 17 17 16 16 16 14 10 10 14 14 13 14 14 14
17 17 18 19 20 20 20 20 20 19 19 18 17 16 15 16 15 15 14 13 10 11 13 11 9 7 5 3 0 2 3 5 6 6 6 7 7 6 6 5 3 3 3 3 2 2 2 3 5 6 5 7 9 6 4 6 4 2 4 8 11 13 13 14 15 16 19 20 14 10 11 11 13 16 18 17 18 18 14 8 10 16 16 14 17 17 16
17 18 18 19 20 20 21 20 20 20 19 18 17 17 16 16 17 17 16 13 12 13 14 12 9 7 7 7 5 3 2 1 2 3 4 5 6 7 7 7 6 4 2 1 1 1 2 3 4 5 5 5 7 5 4 4 3 3 3 3 5 9 11 13 14 15 17 18 14 9 9 11 13 15 18 19 18 17 13 10 13 19 19 18 19 19 19
17 18 19 19 20 20 21 21 21 20 20 19 18 18 17 17 17 17 16 15 13 14 14 13 11 10 10 10 8 6 5 4 3 3 3 3 3 3 3 3 3 2 2 1 0 2 3 4 4 4 4 4 5 4 3 4 4 4 4 4 3 4 5 7 9 10 12 14 11 6 6 9 10 12 17 19 16 14 15 16 16 18 20 21 21 21 21
17 18 19 19 20 20 20 20 21 20 20 19 18 17 17 17 17 17 16 16 15 14 14 13 12 12 12 11 10 9 7 6 5 5 5 5 4 3 2 3 3 1 0 1 1 3 4 4 4 3 4 4 4 3 5 7 6 5 5 5 4 3 3 4 5 6 6 8 8 5 5 8 9 10 14 17 16 14 16 17 16 17 21 22 22 22 22
16 17 18 19 19 20 20 20 20 20 20 19 18 18 17 17 16 16 17 16 15 13 13 13 13 13 12 11 11 10 9 7 7 6 6 6 6 4 3 4 4 3 2 2 3 4 4 4 4 3 4 4 4 4 7 7 6 5 5 6 5 3 3 3 3 3 4 5 6 5 6 8 10 11 13 16 17 16 14 13 15 17 20 21 22 22 21
14 15 17 18 18 19 20 20 20 20 19 19 19 18 18 17 16 16 16 15 14 13 13 13 12 13 13 12 12 12 11 9 8 7 7 6 6 5 4 4 4 3 3 3 4 4 4 4 3 3 4 4 4 5 6 5 5 5 5 4 4 3 3 3 2 2 3 3 4 5 5 6 8 10 12 13 15 14 12 11 13 15 17 19 20 20 19
13 14 15 16 17 18 18 19 19 19 19 19 19 18 18 17 17 16 15 14 14 13 13 12 12 12 13 12 12 12 12 10 8 8 7 7 5 4 4 3 2 2 2 2 3 3 3 3 3 3 4 3 4 5 5 3 4 4 3 3 4 4 4 3 2 3 3 4 4 5 5 5 7 8 9 10 10 10 9 9 10 11 12 14 14 15 16
11 13 14 15 16 16 17 17 18 18 18 18 18 18 18 18 17 16 15 14 14 13 12 11 11 11 12 13 13 12 11 10 9 8 8 7 6 4 3 2 1 1 1 2 3 3 3 3 2 2 2 3 4 4 3 3 4 4 4 4 5 5 4 3 3 4 4 5 6 7 6 6 6 6 6 6 5 5 6 6 7 8 9 11 12 14 15
10 12 13 14 14 15 16 16 17 17 17 17 17 18 18 18 17 16 15 13 13 11 10 9 9 10 12 13 12 11 11 11 10 10 9 9 7 6 5 3 2 1 1 2 2 3 3 3 3 2 2 2 2 2 2 3 3 3 4 4 4 4 3 3 4 4 4 5 7 6 5 5 4 2 3 3 3 4 6 8 9 10 11 12 14 15 16
9 10 12 13 14 14 15 15 16 16 16 16 17 17 17 17 17 16 15 13 12 10 9 9 9 10 12 11 10 10 11 11 11 11 11 10 9 8 7 5 4 2 1 1 2 3 3 3 3 2 2 2 2 2 2 3 3 3 2 2 2 2 1 2 3 3 4 5 5 5 4 3 2 3 3 4 6 7 8 9 11 12 13 15 16 17 19
9 10 11 12 13 14 14 15 15 15 15 16 16 16 16 16 16 15 15 14 11 9 8 8 8 9 10 9 9 9 9 9 10 10 11 11 11 10 10 9 8 5 2 1 1 2 2 3 3 2 3 3 2 2 2 3 3 2 2 2 2 2 1 2 3 3 4 5 4 4 4 3 3 4 5 5 7 9 10 11 12 13 14 15 17 18 19
9 10 11 12 13 14 14 15 15 15 15 15 15 15 15 15 15 14 14 14 12 9 7 7 6 7 8 8 8 9 8 8 8 9 10 11 11 10 10 10 10 8 5 4 3 2 2 2 2 2 2 3 2 2 2 3 3 3 3 4 4 3 2 3 4 4 5 5 4 3 3 3 4 5 6 7 9 10 11 12 13 13 14 15 16 18 19
10 11 12 13 14 14 15 15 15 15 15 14 14 14 14 13 13 13 13 13 12 10 8 6 5 6 6 7 8 8 8 8 8 8 9 10 9 8 9 10 10 9 7 6 6 5 4 3 3 2 1 2 2 3 2 2 2 3 4 4 4 4 4 5 5 4 4 4 4 3 2 3 4 6 7 8 9 10 10 11 12 13 14 16 18 19 20
12 13 14 14 15 15 16 16 15 15 15 15 14 14 13 13 12 12 12 11 11 10 9 6 4 4 5 6 7 7 7 8 8 7 8 9 8 7 7 8 9 9 8 7 7 7 6 4 3 1 0 1 1 1 1 1 1 3 5 6 5 5 5 4 4 4 3 3 3 3 3 4 6 7 7 8 9 10 11 12 12 13 15 17 18 20 20
14 14 15 16 16 16 17 17 17 16 16 15 15 14 13 12 12 11 11 10 10 9 8 6 4 3 4 6 6 5 6 8 8 7 7 7 6 5 5 6 7 7 6 5 5 6 6 5 3 2 1 1 1 0 1 2 3 4 7 8 6 5 4 4 3 3 3 2 3 4 5 7 9 10 10 11 12 12 12 13 13 14 16 18 19 19 20
16 16 16 17 17 17 18 18 18 18 17 17 16 15 14 12 11 11 10 9 9 8 7 5 3 2 3 5 5 5 6 7 8 8 8 7 6 5 4 4 5 6 5 4 3 4 5 5 4 3 2 2 1 1 2 3 4 4 6 8 7 6 5 4 3 2 2 3 5 6 8 10 12 13 13 14 14 14 13 13 14 16 17 18 18 18 18
17 18 18 19 19 19 19 19 19 19 18 18 16 15 14 12 11 11 10 9 8 7 6 4 1 1 2 4 5 5 6 7 8 8 7 6 6 5 4 4 5 5 5 4 1 1 3 4 3 3 3 2 1 1 2 2 2 2 3 6 8 8 7 5 3 2 2 4 6 8 10 11 12 12 12 13 12 12 13 14 15 16 16 16 16 16 16
19 19 20 20 20 20 19 19 19 19 18 17 15 14 13 12 11 10 10 9 7 6 5 3 1 2 3 4 5 6 8 8 9 9 8 7 6 6 5 5 5 5 4 2 1 1 2 2 2 2 2 2 2 1 1 1 2 3 4 5 7 8 7 5 4 3 3 6 9 10 11 11 11 11 11 11 12 12 13 14 14 14 14 14 13 13 14
19 19 19 19 19 19 18 18 17 17 16 15 14 12 12 11 10 9 9 7 6 5 4 2 2 4 5 6 6 7 9 10 10 10 9 8 7 6 5 5 5 4 3 2 2 3 3 3 4 3 3 4 4 2 2 3 3 4 5 6 7 8 7 6 6 5 5 7 10 11 12 12 11 11 11 12 13 13 13 13 13 12 11 10 9 9 10
17 18 18 19 19 18 17 16 15 14 13 12 11 10 9 9 8 8 7 5 4 3 2 1 3 5 6 7 6 7 8 10 11 12 11 10 9 8 7 6 5 4 4 3 4 4 5 5 6 6 6 6 5 3 4 4 4 5 6 7 8 9 8 7 7 7 7 9 11 12 14 13 12 11 11 12 12 12 12 12 10 8 6 5 5 7 7
16 18 18 19 18 17 15 14 13 12 10 9 8 8 7 7 6 5 4 2 2 2 2 3 4 5 5 6 6 6 7 9 11 12 12 11 10 10 10 9 7 6 5 5 5 6 6 7 7 7 7 7 6 5 7 7 7 7 8 9 10 10 9 7 7 8 9 10 12 14 15 14 12 11 11 11 11 11 10 7 4 2 2 3 4 6 7
18 18 19 17 15 13 11 10 9 8 7 6 6 6 5 5 4 2 1 1 2 2 3 4 5 4 4 4 5 5 6 8 10 12 12 12 11 11 12 11 10 9 7 6 6 7 7 7 8 8 7 6 6 7 8 9 10 10 10 10 11 10 9 7 7 8 10 11 14 15 15 13 11 10 10 10 10 9 5 1 3 4 4 3 4 5 6
18 17 15 12 9 8 7 6 6 5 5 5 4 4 3 2 1 1 2 3 3 4 4 4 4 3 2 3 4 5 6 8 10 11 12 12 12 12 12 12 12 11 9 7 5 6 6 7 7 7 6 5 5 6 7 8 9 10 10 11 11 10 8 7 7 9 11 12 14 15 14 11 9 9 9 9 8 4 2 6 6 4 3 4 5 5 6
15 12 9 6 5 5 4 5 5 4 4 3 2 1 1 0 2 3 4 4 4 4 4 3 2 0 2 4 5 7 8 9 10 11 13 13 11 12 13 13 12 12 10 7 5 6 6 6 7 7 6 5 6 7 7 7 7 8 9 10 10 9 7 7 8 9 11 13 14 14 12 9 7 7 8 8 4 3 8 8 4 2 2 4 5 5 5
9 6 4 3 3 3 4 4 4 3 3 2 1 1 2 2 3 4 4 4 4 3 3 1 0 2 4 5 6 8 9 10 11 13 14 13 12 12 13 12 12 11 8 6 7 8 9 9 9 8 6 6 6 6 6 7 8 9 10 10 10 8 7 8 9 10 11 13 14 13 11 8 7 7 7 4 3 8 9 6 2 2 2 3 4 4 4
4 2 1 2 2 3 3 3 3 3 2 3 3 3 3 3 4 4 3 2 2 2 1 1 3 4 5 7 8 8 9 11 12 13 13 13 12 13 13 12 11 9 7 8 10 11 11 11 11 8 5 6 6 5 6 8 10 11 11 11 10 9 9 9 10 10 11 13 14 13 11 8 7 7 5 3 9 11 8 4 2 2 3 3 4 5 4
2 0 1 1 2 3 2 3 3 2 2 3 3 3 3 3 3 3 2 1 1 1 2 4 6 7 9 9 9 10 11 12 12 12 13 13 13 13 12 11 10 9 9 11 12 13 12 12 10 8 7 8 7 7 7 8 10 12 13 12 11 10 10 10 10 10 12 14 15 14 11 8 7 6 4 7 12 11 6 3 2 3 3 4 5 5 5
2 1 0 1 2 2 2 2 2 2 3 3 3 3 3 2 1 1 1 2 3 5 6 7 9 10 11 12 11 12 12 12 13 14 14 13 12 12 11 10 10 11 11 12 13 13 12 10 9 8 8 9 8 8 8 9 10 12 13 13 12 12 11 10 10 10 12 15 16 14 10 7 6 6 5 11 13 10 5 3 3 3 4 4 5 6 5
3 2 1 0 1 1 1 2 2 3 3 3 3 3 2 1 1 2 3 3 4 6 8 9 10 11 12 13 13 12 12 13 14 14 13 13 13 13 11 10 11 12 12 12 12 11 10 8 8 9 9 8 8 8 8 8 10 12 13 13 13 12 12 10 9 10 12 15 15 13 8 6 6 6 8 14 14 9 5 3 3 4 4 4 5 6 7
4 3 2 2 1 1 2 2 2 2 2 2 1 1 1 1 3 4 5 5 7 8 9 10 11 12 13 13 13 13 13 14 14 14 14 14 13 12 11 12 12 11 10 10 11 10 8 8 10 11 10 9 8 8 7 6 7 9 11 13 13 13 11 10 9 10 12 15 15 12 7 6 5 5 10 15 14 9 5 4 4 4 4 4 4 6 8
5 4 4 3 2 2 2 2 1 2 2 2 3 3 4 4 5 6 7 8 9 10 11 12 13 14 13 13 14 15 15 15 15 14 14 14 13 12 12 12 11 9 10 11 11 10 8 8 10 11 11 10 10 8 7 6 5 6 8 11 12 12 10 9 9 11 12 14 15 11 7 6 5 6 11 16 15 10 6 4 4 4 4 3 4 6 8
6 5 5 4 3 3 1 1 2 3 4 5 6 7 8 8 8 9 9 10 11 12 13 14 14 14 14 15 16 16 16 16 16 15 14 12 11 11 10 9 9 11 12 12 12 11 10 10 11 12 12 12 11 10 9 8 8 8 9 10 11 11 10 10 11 11 12 14 14 11 8 6 6 7 11 16 16 12 7 5 4 4 3 3 3 5 6
5 5 5 5 5 5 5 4 4 5 6 7 8 10 11 11 12 13 13 13 14 15 15 16 16 16 15 16 17 17 17 17 15 13 12 12 10 9 8 9 12 13 13 12 12 13 13 11 11 12 13 13 12 12 11 10 10 10 11 11 12 12 12 12 12 12 13 13 14 12 8 7 7 7 10 15 17 14 9 6 4 3 3 3 3 3 4
6 6 6 6 6 7 8 7 7 7 8 9 11 12 13 13 14 15 15 15 16 17 16 16 17 16 16 16 17 17 17 15 13 12 13 13 12 12 13 14 14 13 12 12 14 15 14 13 13 14 14 14 13 12 12 12 11 11 11 12 13 14 14 14 14 13 13 14 14 12 9 7 7 8 10 15 18 17 13 8 5 4 3 3 2 2 2
9 9 9 8 8 9 9 9 9 10 11 12 13 14 14 14 16 17 17 16 16 15 15 16 16 16 16 16 16 15 14 13 12 13 15 15 14 15 18 16 12 10 11 15 17 18 16 15 15 16 16 15 14 14 14 14 14 13 12 12 13 15 16 15 15 14 14 14 13 12 9 8 8 9 10 14 18 19 16 11 8 6 5 4 2 1 1
13 12 11 9 9 9 10 10 11 12 14 15 15 15 15 16 17 17 16 15 14 14 14 15 15 15 15 15 15 14 14 14 14 16 18 18 18 19 19 17 12 10 13 17 19 19 17 16 16 17 19 18 17 16 16 16 16 16 15 15 15 15 14 14 15 16 16 14 12 10 9 8 8 9 9 12 15 17 17 15 12 9 7 6 4 3 1
Wind_Direction
346 345 344 343 343 345 345 345 347 345 345 346 344 340 340 345 348 341 329 322 304 262 232 224 216 212 217 222 225 229 235 240 241 239 240 243 245 247 248 246 244 242 241 242 242 243 243 243 239 233 232 232 226 221 217 212 210 222 240 229 213 207 205 195 180 179 191 192 193 192 193 197 198 203 209 208 209 207 204 209 202 193 188 175 166 182 182
348 346 345 343 344 346 347 347 348 349 350 350 349 346 347 354 1 353 340 333 305 238 220 220 213 210 216 222 224 228 233 236 237 239 240 241 241 242 241 240 240 239 240 242 243 242 239 236 229 221 222 221 215 218 224 222 221 224 225 223 212 206 198 179 156 140 161 170 172 176 173 177 184 188 195 198 202 205 206 208 202 194 193 189 181 182 178
349 348 346 346 347 348 350 350 350 356 356 353 356 1 1 5 12 6 354 347 310 238 225 224 216 212 215 220 222 223 226 230 231 233 237 235 231 230 230 231 232 234 236 237 240 239 231 228 220 210 208 206 200 200 213 221 224 226 224 219 209 202 199 189 180 176 177 171 180 180 173 173 175 173 176 184 191 198 202 200 194 196 201 198 191 180 178
353 353 351 351 351 351 354 354 356 1 1 1 10 15 17 23 23 12 3 1 350 265 243 238 226 218 216 215 215 213 214 219 223 228 232 229 226 225 224 223 223 227 230 231 234 231 223 222 217 207 202 197 191 192 198 204 208 216 222 221 218 210 199 200 202 200 187 162 163 173 173 172 165 157 156 159 171 188 197 197 197 201 203 200 200 199 186
359 358 357 357 356 356 357 358 3 7 4 13 21 16 19 39 40 32 28 21 15 344 287 261 230 216 213 210 206 205 205 207 211 215 217 215 216 219 220 219 219 220 222 223 222 219 213 209 206 206 205 205 200 198 204 210 213 214 214 217 225 226 213 213 223 217 208 197 167 166 168 169 164 157 154 151 151 169 181 181 186 199 203 204 207 208 196
5 4 3 3 1 1 1 1 7 9 7 20 24 13 19 43 45 41 44 39 32 24 5 352 237 204 202 200 199 196 193 192 194 192 195 201 203 206 210 211 213 212 210 211 209 206 202 195 194 200 204 208 209 202 203 209 212 215 214 204 214 223 212 211 220 221 220 220 201 182 175 169 164 159 161 167 165 171 180 171 159 189 205 218 214 212 207
9 8 8 10 7 6 5 4 7 7 8 20 20 11 24 42 45 44 46 43 39 37 35 42 77 159 176 177 178 179 176 175 176 173 174 184 187 192 197 194 201 204 203 207 203 196 195 189 187 194 197 204 209 203 202 205 205 213 215 195 185 188 182 178 176 176 181 182 174 165 157 152 149 142 139 152 143 166 223 224 235 236 238 250 242 234 224
12 12 13 13 13 12 9 8 8 5 7 14 10 8 24 37 42 43 42 40 38 34 36 53 76 109 139 136 129 138 150 150 150 152 155 161 160 166 173 164 168 180 190 207 206 193 191 187 180 183 186 190 195 195 197 200 199 205 204 197 199 199 186 181 183 182 180 181 179 174 169 176 185 190 246 261 257 314 267 248 253 261 266 271 270 259 234
14 15 16 15 16 16 15 12 11 8 8 8 3 5 18 26 32 37 36 36 36 33 37 53 68 86 109 110 101 102 111 114 116 121 127 135 136 136 142 145 148 149 151 183 189 178 178 176 171 174 176 175 178 180 177 175 175 182 190 196 207 212 205 202 205 207 204 203 211 219 222 239 251 249 252 253 245 245 256 263 265 264 266 272 272 265 247
17 17 17 17 17 18 19 18 15 15 13 8 3 7 12 14 19 26 30 37 39 35 37 53 68 77 87 94 91 88 91 94 104 113 110 111 119 117 110 117 135 140 137 151 157 156 163 166 164 169 171 167 166 165 161 162 165 170 178 190 203 211 211 209 207 204 201 208 230 237 223 229 242 234 231 232 228 229 233 236 244 248 247 249 252 254 250
20 19 17 17 18 19 21 21 20 20 17 13 12 13 13 11 13 22 29 38 45 41 38 54 71 72 72 73 74 77 85 87 96 106 100 99 109 109 96 99 114 125 143 155 162 167 176 186 191 189 188 182 169 162 158 157 156 156 161 169 182 198 206 207 207 205 202 203 207 202 186 198 226 217 212 214 216 217 218 218 223 227 227 230 237 241 242
21 21 19 18 18 20 22 22 21 20 18 18 19 18 18 19 19 25 33 40 50 51 47 57 68 70 71 70 64 61 67 80 92 104 102 102 108 103 96 105 115 123 137 151 189 211 210 220 231 237 244 242 224 207 207 197 188 187 189 185 178 182 192 199 201 200 189 177 173 167 190 213 215 207 203 206 211 213 213 216 222 228 232 235 238 239 238
23 22 22 20 19 20 23 24 23 22 21 22 23 25 28 28 26 29 35 43 54 55 50 55 60 59 58 55 51 55 60 62 69 85 91 93 97 88 237 225 216 193 190 192 206 217 219 221 227 232 243 256 264 263 253 244 245 256 260 255 241 200 192 193 187 178 170 170 171 173 212 206 206 206 203 204 207 208 210 215 222 228 233 235 236 236 233
25 24 23 23 23 22 23 25 25 25 26 26 28 31 32 32 32 35 40 50 59 55 46 43 44 41 35 20 22 45 52 45 54 66 59 55 58 36 352 276 258 240 238 241 236 235 235 230 230 231 233 241 250 253 251 247 246 250 254 254 240 212 202 198 187 172 169 177 186 201 197 195 208 210 203 204 206 206 209 214 219 223 225 225 227 228 227
27 27 26 26 26 26 26 27 28 28 29 30 32 34 33 33 35 39 45 53 59 58 56 48 33 14 269 291 337 8 13 14 37 55 28 8 11 13 26 50 280 273 253 250 246 243 239 234 230 225 217 217 223 232 238 237 238 239 236 232 223 211 207 208 205 196 187 184 188 201 197 215 219 214 208 209 207 206 210 212 217 221 218 215 217 220 221
30 30 30 29 30 30 30 29 29 30 31 31 32 33 32 34 35 38 45 51 54 64 67 65 60 58 43 264 274 283 286 291 302 306 302 309 320 324 319 305 320 320 300 282 264 243 232 228 221 211 206 207 206 208 215 214 218 234 232 226 220 212 208 207 206 204 198 192 189 202 215 222 221 215 212 211 208 205 205 205 213 217 213 207 206 209 212
34 34 34 33 33 33 34 33 32 32 32 31 30 30 30 32 34 39 46 48 51 63 65 62 62 64 61 61 46 274 275 270 271 276 280 285 289 284 284 289 289 297 309 309 303 262 221 211 206 198 192 197 198 190 190 194 188 193 219 225 225 222 218 213 209 208 205 200 200 213 221 223 219 211 207 208 205 201 196 192 205 210 209 204 202 202 205
39 38 38 37 36 35 36 36 35 34 33 31 31 31 32 34 35 39 44 44 48 60 62 57 57 63 63 63 65 56 33 353 297 291 289 288 286 280 279 282 281 283 286 285 18 68 124 140 164 174 172 182 189 180 168 176 161 125 145 184 212 216 216 216 214 212 207 202 201 212 226 226 220 209 203 202 199 196 197 205 207 206 206 206 204 202 204
43 42 41 40 38 37 36 36 36 35 34 32 32 31 32 35 37 40 42 41 42 51 54 50 48 51 52 53 53 52 52 50 34 15 3 347 335 316 302 303 297 271 220 210 97 100 120 128 140 153 156 167 177 169 150 153 139 120 128 134 156 185 194 202 204 203 203 200 196 199 221 224 220 210 204 200 196 198 210 216 211 205 206 207 207 206 207
46 45 43 42 41 39 38 37 36 35 34 34 33 32 33 35 37 38 39 38 38 43 45 43 40 41 42 44 45 48 52 55 50 40 35 31 21 12 45 51 37 45 136 214 169 136 128 131 134 131 131 145 156 144 130 130 122 114 122 125 126 140 142 154 172 179 187 188 184 190 222 221 214 208 204 201 202 210 218 219 215 210 208 209 209 209 210
46 45 44 43 41 40 39 38 37 36 35 34 34 34 34 35 36 37 38 37 37 39 41 38 36 36 36 37 39 44 48 54 56 52 45 40 37 48 75 65 48 50 65 95 134 143 140 140 139 130 128 134 139 139 135 128 117 114 123 119 107 102 111 127 149 165 172 175 177 193 216 214 206 203 202 203 209 217 222 221 219 216 212 210 210 211 214
44 43 42 41 40 38 37 37 36 35 34 33 33 34 33 34 35 37 38 38 37 40 43 41 38 37 36 35 37 40 42 46 54 57 52 47 45 53 62 58 51 59 78 96 114 126 136 141 137 133 133 131 134 145 147 137 122 124 130 123 108 108 129 132 130 149 158 164 171 183 198 202 196 197 200 203 208 213 214 213 214 215 215 215 215 217 221
40 39 38 37 37 35 35 35 34 34 32 31 31 31 31 32 34 36 37 37 36 39 41 41 41 41 39 36 37 37 38 42 53 62 60 54 53 55 61 64 62 67 89 113 122 126 128 131 129 128 129 126 136 149 156 153 141 133 128 127 131 143 151 144 135 147 148 147 156 163 171 176 175 182 191 194 195 197 195 196 203 212 218 222 227 231 234
35 34 34 33 32 31 30 30 31 31 31 30 29 29 28 29 30 32 33 35 36 37 39 42 43 44 42 38 36 36 38 42 48 56 58 55 52 56 69 81 84 101 127 144 158 165 161 149 142 140 134 126 132 143 149 148 144 141 135 132 136 141 141 136 153 163 153 149 152 151 151 157 159 166 180 187 192 202 208 217 228 235 241 246 251 255 259
28 27 26 26 26 25 24 24 24 24 26 26 25 24 25 25 26 27 29 32 34 36 39 44 43 40 40 40 37 38 42 44 43 46 49 47 45 49 63 75 84 126 166 173 178 190 195 189 186 193 183 157 152 159 157 148 143 145 144 138 136 136 125 123 146 160 152 149 154 153 151 157 163 174 190 207 231 246 253 259 262 265 267 269 271 273 275
16 17 16 16 16 16 17 17 17 17 18 19 20 20 20 20 21 22 24 26 30 34 36 38 37 38 42 43 41 40 42 44 45 45 43 41 37 35 37 45 50 59 130 172 173 179 187 185 186 193 189 179 176 166 160 159 156 158 161 155 153 155 146 148 155 153 144 151 163 169 164 166 191 219 231 241 246 251 259 263 265 268 271 273 274 274 274
1 2 4 4 5 6 6 7 9 10 10 11 13 14 14 14 16 17 18 20 24 29 32 32 32 38 43 43 39 37 37 38 43 44 41 41 38 32 27 30 36 45 65 118 155 168 171 167 166 164 166 171 171 162 164 173 172 176 197 209 214 236 250 201 184 174 161 161 172 177 165 170 208 231 244 255 258 261 266 267 268 270 271 271 272 272 271
346 347 349 351 353 353 355 357 359 0 1 3 5 5 5 7 9 10 11 14 15 18 24 30 33 36 39 38 35 33 31 30 35 39 41 41 41 38 34 31 31 37 51 63 67 83 113 127 138 155 175 195 208 213 211 207 204 208 220 229 234 235 208 176 172 173 167 167 171 173 175 200 240 259 269 273 273 275 276 276 277 279 280 280 281 280 278
331 334 336 338 340 342 344 346 348 349 351 352 355 356 356 357 360 2 4 6 8 8 10 20 33 37 36 34 29 26 24 23 26 32 34 37 41 44 41 35 32 36 47 57 59 63 76 88 99 123 197 240 239 233 231 229 213 201 202 206 206 197 181 169 166 167 170 178 190 208 233 248 261 270 273 272 274 275 277 278 280 282 285 286 284 283 284
319 323 326 328 330 332 334 335 337 339 339 341 344 346 346 347 350 354 356 359 0 0 1 6 20 32 33 29 27 24 19 18 22 27 26 28 34 40 41 37 32 35 47 59 62 61 62 61 64 74 40 336 277 239 232 219 176 169 176 182 184 181 178 177 181 187 192 199 216 245 267 268 268 271 271 271 274 277 279 282 283 284 286 287 287 288 289
312 315 318 320 322 324 325 326 328 329 330 331 334 335 336 338 341 343 347 350 353 355 357 354 355 11 21 19 20 25 18 14 16 17 16 18 24 29 34 33 28 28 35 47 53 54 48 42 44 56 45 28 42 62 122 127 136 157 174 185 195 193 181 173 178 192 203 230 266 277 276 272 271 273 274 275 277 279 282 283 285 288 291 292 292 293 294
307 310 312 315 316 317 318 319 320 321 322 323 325 326 327 330 330 332 337 342 345 350 353 348 347 14 21 13 18 29 23 13 9 5 2 4 9 13 15 14 11 10 8 7 23 40 35 35 49 63 59 61 72 84 107 114 116 138 172 190 198 190 172 166 175 199 232 281 298 297 291 284 280 279 280 280 279 281 283 286 290 293 295 296 298 298 298
305 308 309 310 311 311 312 312 313 314 315 316 318 319 320 321 322 324 330 336 339 343 347 350 6 76 32 24 33 38 29 22 16 11 7 0 357 358 354 344 339 343 350 356 5 32 17 20 36 45 39 45 68 82 103 121 130 143 168 183 184 176 170 180 201 228 295 320 324 323 316 305 295 292 291 289 286 286 288 290 293 295 297 300 302 302 301
304 305 306 307 308 309 309 309 309 309 310 311 313 313 314 316 318 322 327 331 334 337 343 357 49 83 58 54 56 47 39 34 26 20 19 11 0 355 344 330 325 326 338 355 329 294 326 333 330 331 320 298 305 337 153 209 222 199 184 185 182 178 182 201 219 239 298 323 329 331 329 321 310 303 302 300 296 294 293 293 294 296 299 302 304 305 307
302 304 305 306 308 309 309 308 307 306 306 308 309 309 311 314 315 319 324 328 334 342 348 2 63 77 75 75 69 51 44 39 29 23 21 17 12 7 357 343 334 326 323 317 293 289 287 282 291 296 280 278 294 290 241 238 237 213 199 196 195 197 206 222 233 251 291 317 324 327 330 328 319 309 304 302 299 296 295 295 297 300 304 308 313 321 326
303 304 306 308 309 309 308 306 305 304 305 306 307 307 309 310 312 317 324 328 339 358 13 67 92 81 73 70 63 51 43 37 30 25 22 21 22 23 18 8 357 346 332 310 293 285 279 276 282 285 278 283 291 266 229 226 228 219 210 206 206 213 223 235 245 258 283 308 318 321 324 325 319 311 306 303 300 298 298 299 303 309 319 334 343 344 341
304 305 308 309 309 308 306 304 304 305 306 308 309 308 309 311 314 320 329 343 15 51 96 120 109 89 74 64 54 42 32 27 23 21 20 20 21 22 19 14 6 357 344 323 302 291 284 282 282 281 281 286 283 257 236 229 224 225 227 226 224 226 233 244 256 267 284 301 312 316 318 317 313 310 309 307 304 303 304 308 321 6 40 29 6 348 339
304 307 309 309 308 307 306 306 308 311 313 315 316 314 314 318 321 331 13 100 102 103 123 134 123 98 76 56 34 17 10 9 8 9 12 12 11 11 10 8 3 356 346 330 310 298 290 286 287 287 285 283 276 262 251 242 236 236 240 241 237 233 235 247 263 276 288 301 311 315 314 310 307 309 312 312 310 311 316 26 96 94 71 28 356 339 332
305 308 310 310 309 311 313 316 320 327 329 327 324 318 316 320 16 102 117 134 127 109 112 134 139 118 60 17 359 351 349 349 350 354 358 0 1 0 358 357 356 352 346 338 327 316 303 291 291 296 299 287 268 260 258 255 248 242 241 243 241 237 238 250 268 281 291 303 314 317 314 306 303 308 314 314 312 313 118 119 113 96 44 356 340 333 329
306 309 312 316 321 329 332 335 341 346 346 346 341 328 321 107 129 124 125 135 129 103 94 121 152 283 328 333 333 332 332 333 337 340 343 346 349 350 349 348 348 347 344 342 340 333 318 302 299 305 307 291 271 261 255 252 246 238 236 238 239 238 240 253 269 283 297 310 320 324 318 308 304 310 315 313 302 152 135 128 116 74 5 345 339 337 333
304 309 319 332 341 345 347 351 358 6 16 28 47 105 113 114 124 130 129 132 127 105 88 94 334 317 323 326 325 323 323 328 331 334 336 337 338 339 340 340 340 341 342 339 335 330 318 307 308 313 306 286 273 260 244 236 234 234 236 237 236 238 245 258 273 290 307 318 326 330 327 318 312 314 312 298 176 149 141 134 112 42 8 354 351 350 347
299 313 352 3 2 1 3 12 26 50 73 79 94 115 113 109 119 130 131 127 121 104 68 342 325 325 325 325 324 323 324 327 329 330 332 332 330 331 333 332 332 334 332 326 325 322 312 306 311 315 295 271 263 248 231 228 230 232 233 232 232 238 248 261 277 297 315 325 330 332 329 321 313 309 299 208 161 154 149 137 91 47 29 17 14 11 6
276 303 53 33 22 22 29 39 52 82 104 100 102 113 114 111 119 124 113 75 23 355 330 320 319 321 321 321 320 319 320 322 325 326 327 326 326 327 326 323 320 322 322 320 319 316 309 308 308 300 280 271 265 251 234 228 229 234 236 235 234 240 249 262 282 305 321 327 330 329 323 314 307 299 255 177 164 160 154 127 82 55 43 37 32 28 24
232 205 107 43 24 30 52 66 76 103 119 115 111 118 120 124 143 148 351 330 319 317 315 313 312 315 316 317 317 317 317 318 320 321 321 322 325 325 320 312 309 313 315 314 313 314 313 309 300 289 286 288 283 272 254 237 232 238 242 240 238 240 248 263 287 309 321 327 328 323 312 300 297 285 219 178 170 168 156 120 87 67 60 50 43 43 45
206 196 174 111 25 42 98 113 114 118 118 113 112 111 99 58 304 309 325 322 311 310 310 308 309 312 315 316 316 316 315 315 315 315 316 317 319 318 311 304 304 307 306 303 305 312 315 307 296 296 300 301 297 293 279 253 238 238 242 243 241 242 250 267 290 309 320 326 326 319 300 283 285 269 206 181 177 175 162 129 100 81 73 61 53 57 58
205 201 198 193 179 143 137 143 147 140 118 107 111 105 16 316 305 314 323 319 312 310 311 309 309 311 313 315 316 315 312 311 310 309 309 310 310 309 307 304 302 297 291 292 302 313 313 299 295 301 304 303 305 306 298 276 253 244 245 248 248 248 254 269 289 303 315 325 327 316 288 265 268 247 200 185 183 183 172 142 111 90 80 71 66 67 65
210 205 204 198 187 168 150 153 210 267 284 286 280 284 292 294 294 301 309 311 310 310 309 307 307 309 310 312 312 310 309 308 305 303 303 302 298 295 297 298 294 286 280 286 301 315 311 291 289 294 299 301 304 301 289 276 263 249 248 253 255 255 259 271 283 295 309 324 327 316 284 255 252 232 201 191 190 190 182 155 124 100 86 79 77 74 70
220 217 216 215 217 223 235 280 299 296 294 289 286 290 295 297 295 297 301 304 305 305 304 303 304 305 305 307 307 306 305 304 302 300 298 294 287 285 287 287 288 291 291 292 299 308 304 290 285 289 293 295 297 294 282 267 254 246 247 253 257 259 261 267 276 287 303 318 324 317 289 254 244 229 207 199 197 196 192 176 147 121 102 88 82 77 72
229 229 232 235 244 258 277 294 300 296 294 292 291 293 295 296 295 297 299 300 300 301 302 301 300 299 299 299 299 299 300 300 298 295 291 284 276 272 271 274 285 296 301 298 296 298 298 293 290 291 291 291 290 289 283 271 259 253 253 252 252 255 260 264 270 281 294 309 318 317 295 259 244 232 214 206 204 204 202 195 178 154 133 109 91 77 66
243 249 256 261 264 271 280 289 292 291 289 288 287 288 290 290 290 292 294 294 294 296 296 295 294 294 294 293 292 294 298 299 295 288 285 283 277 269 269 276 288 302 306 299 291 290 291 289 287 287 288 288 286 283 280 274 267 262 260 256 251 251 255 260 266 274 285 298 308 311 297 266 245 234 220 212 210 209 207 206 204 193 173 150 120 91 62
251 258 265 271 273 272 273 279 286 290 292 291 289 288 289 289 290 292 295 296 296 294 292 290 289 289 290 289 288 289 292 293 289 285 286 287 281 274 275 283 297 304 298 291 288 286 283 279 279 281 285 288 286 281 276 273 269 265 262 260 256 255 256 258 261 268 277 287 297 301 295 273 251 240 231 222 218 215 213 213 218 216 204 195 184 141 97
255 258 264 273 277 274 271 274 282 288 292 293 292 292 294 295 295 298 301 302 301 298 295 292 291 290 287 284 282 281 283 284 282 282 285 288 288 288 291 297 300 289 278 278 281 281 277 274 275 279 283 285 285 283 279 276 272 268 264 261 259 258 258 257 257 262 270 279 285 288 289 281 264 251 243 236 229 224 221 222 225 225 220 218 220 219 203